TimeCDT,TemperatureF,Dew PointF,Humidity,Sea Level PressureIn,VisibilityMPH,Wind Direction,Wind SpeedMPH,Gust SpeedMPH,PrecipitationIn,Events,Conditions,WindDirDegrees,DateUTC
12:58 AM,57.9,55.9,93,30.17,-9999.0,Calm,Calm,-,N/A,,Clear,0,2012-10-11 05:58:00
1:58 AM,57.9,55.0,90,30.17,-9999.0,Calm,Calm,-,N/A,,Clear,0,2012-10-11 06:58:00
2:58 AM,59.0,55.9,90,30.17,-9999.0,Calm,Calm,-,N/A,,Clear,0,2012-10-11 07:58:00
3:58 AM,57.9,55.9,93,30.17,-9999.0,Calm,Calm,-,N/A,,Clear,0,2012-10-11 08:58:00
4:58 AM,57.0,55.0,93,30.18,-9999.0,Calm,Calm,-,N/A,,Clear,0,2012-10-11 09:58:00
5:58 AM,57.9,57.0,97,30.20,-9999.0,Calm,Calm,-,N/A,,Clear,0,2012-10-11 10:58:00
6:58 AM,57.9,55.9,93,30.22,-9999.0,Calm,Calm,-,N/A,,Clear,0,2012-10-11 11:58:00
7:58 AM,63.0,59.0,87,30.23,-9999.0,Calm,Calm,-,0.01,,Clear,0,2012-10-11 12:58:00
8:58 AM,68.0,61.0,78,30.25,-9999.0,ENE,3.5,-,N/A,,Clear,60,2012-10-11 13:58:00
9:58 AM,73.0,61.0,66,30.26,-9999.0,Calm,Calm,-,N/A,,Clear,0,2012-10-11 14:58:00
10:58 AM,77.0,61.0,58,30.25,-9999.0,Calm,Calm,-,N/A,,Clear,0,2012-10-11 15:58:00
12:58 PM,81.0,61.0,50,30.22,-9999.0,North,5.8,-,N/A,,Clear,10,2012-10-11 17:58:00
1:58 PM,82.9,61.0,47,30.20,-9999.0,ENE,9.2,-,N/A,,Clear,60,2012-10-11 18:58:00
2:58 PM,82.9,59.0,44,30.19,10.0,ENE,6.9,-,N/A,,Clear,70,2012-10-11 19:58:00
3:58 PM,82.9,59.0,44,30.18,10.0,Variable,3.5,-,N/A,,Clear,0,2012-10-11 20:58:00
4:58 PM,82.0,60.1,47,30.19,10.0,Calm,Calm,-,N/A,,Clear,0,2012-10-11 21:58:00
5:58 PM,75.0,64.0,69,30.19,10.0,Calm,Calm,-,N/A,,Clear,0,2012-10-11 22:58:00
6:58 PM,71.1,63.0,75,30.20,10.0,Calm,Calm,-,N/A,,Clear,0,2012-10-11 23:58:00
7:58 PM,66.0,62.1,87,30.22,10.0,Calm,Calm,-,N/A,,Clear,0,2012-10-12 00:58:00
8:58 PM,66.0,61.0,84,30.22,10.0,Calm,Calm,-,N/A,,Clear,0,2012-10-12 01:58:00
9:58 PM,64.0,60.1,87,30.24,10.0,Calm,Calm,-,N/A,,Clear,0,2012-10-12 02:58:00
10:58 PM,63.0,59.0,87,30.23,10.0,Calm,Calm,-,N/A,,Clear,0,2012-10-12 03:58:00
11:58 PM,63.0,59.0,87,30.23,10.0,Calm,Calm,-,N/A,,Clear,0,2012-10-12 04:58:00